Location: Street
(51.1247°N, 2.7429°W)
Time: 14:31:56
(UTC+00:00)

SR - Pass Details

Date: 28 November 2020
Orbit: 575 x 880 km, 66.7° (Epoch: 25 January)

Event Time Altitude Azimuth Distance (km) Brightness Sun altitude
Rises 04:05:11 0° 317° (NW) 3,174 - -34.2°
Reaches altitude 10° 04:07:39 10° 308° (NW) 2,297 - -33.8°
Maximum altitude 04:12:24 35° 244° (WSW) 1,278 - -33.1°
Drops below altitude 10° 04:17:28 10° 181° (S) 2,448 - -32.3°
Exits shadow 04:19:32 - 174° (S) 3,179 ? -32.0°
Sets 04:20:10 0° 173° (S) 3,412 ? -31.9°
